Flag for Ukraine Weather past 2 weeks in Chernobyl, Ukraine

Now
72 °F

Broken clouds.


Feels Like: 76 °F
Forecast: 59 / 77 °F
Wind: 13 mph from North

Location: Hostomel

Current Time: Jul 29, 2015 at 3:39:17 PM

Latest Report: Jul 29, 2015 at 3:00 PM


Visibility: N/A

Pressure: 29.86 "Hg

Humidity: 57%

Dew point: 55 °F

Location of ChernobylLocation

Historic Weather in Chernobyl — Graph

°F

Chernobyl temperature yesterday

Maximum temperature yesterday: 77 °F (at 6:00 PM)
Minimum temperature yesterday: 61 °F (at 12:00 AM)
Average temperature yesterday: 66 °F

Past Weeks' High & Low Weather Summary

 TemperatureHumidityPressure
High97 °F (Jul 26, 4:00 PM)100% (Jul 28, 12:00 AM)30.07 "Hg (Jul 28, 12:00 AM)
Low52 °F (Jul 17, 5:00 AM)23% (Jul 26, 4:00 PM)29.68 "Hg (Jul 26, 4:00 PM)
Average73 °F56%29.89 "Hg
* Reported Jul 14 2:00 PM — Jul 29 2:30 PM, Chernobyl, Weather by CustomWeather, © 2015

Note: Actual official high and low records may vary slightly from our data, if they occured in-between our weather recording intervals... More about our weather records

Advertising

Chernobyl weather history for previous 24 hours

 ConditionsComfort  
Time TempWeatherWind HumidityBarometerVisibility
2:30 PM
Wed, Jul 29
73 °FBroken clouds.13 mph57%29.86 "Hg4 mi
2:00 PM75 °FBroken clouds.13 mph41%29.83 "HgN/A
1:30 PM77 °FBroken clouds.13 mph42%29.83 "HgN/A
1:00 PM79 °FBroken clouds.15 mph42%29.83 "HgN/A
12:30 PM79 °FPartly sunny.10 mph39%29.83 "HgN/A
12:00 PM79 °FPassing clouds.8 mph45%29.83 "HgN/A
11:30 AM79 °FPassing clouds.13 mph42%29.83 "HgN/A
11:00 AM77 °FPassing clouds.10 mph44%29.83 "HgN/A
10:30 AM77 °FPassing clouds.10 mph44%29.83 "HgN/A
10:00 AM75 °FPassing clouds.8 mph47%29.83 "HgN/A
9:30 AM73 °FPassing clouds.6 mph53%29.83 "HgN/A
9:00 AM70 °FSunny.8 mph60%29.83 "Hg10 mi
8:00 AM64 °FSunny.6 mph78%29.83 "Hg10 mi
7:00 AM61 °FSunny.3 mph88%29.83 "Hg10 mi
6:00 AM55 °FCool.3 mph100%29.80 "Hg6 mi
5:00 AM57 °FCool.6 mph94%29.80 "HgN/A
4:00 AM57 °FCool.3 mph100%29.80 "Hg5 mi
3:00 AM57 °FCool.3 mph100%29.80 "Hg2 mi
2:00 AM59 °FCool.3 mph94%29.77 "Hg3 mi
1:00 AM59 °FCool.3 mph94%29.80 "Hg4 mi
12:00 AM61 °FCool.6 mph94%29.77 "Hg6 mi
11:00 PM
Tue, Jul 28
61 °FCool.3 mph94%29.77 "Hg6 mi
10:00 PM63 °FMild.No wind83%29.77 "Hg6 mi
9:00 PM64 °FMild.3 mph83%29.74 "HgN/A
8:00 PM70 °FScattered showers. Cloudy.10 mph69%29.71 "HgN/A
7:00 PM75 °FMild.8 mph54%29.71 "HgN/A
6:00 PM77 °FWarm.6 mph47%29.71 "HgN/A
5:00 PM75 °FPartly sunny.1 mph54%29.71 "HgN/A
4:30 PM73 °FPartly sunny.1 mph61%29.71 "HgN/A
4:00 PM72 °FPartly sunny.1 mph65%29.71 "HgN/A
3:30 PM70 °FPassing clouds.3 mph73%29.71 "HgN/A
3:00 PM73 °FPassing clouds.3 mph61%29.71 "HgN/A
Weather by CustomWeather, © 2015

See weather overviewHow to use our weather pages